Time[GMT],current_u[cm/s](10m),current_v[cm/s](10m),current_u[cm/s](14m),current_v[cm/s](14m),current_u[cm/s](18m),current_v[cm/s](18m),current_u[cm/s](22m),current_v[cm/s](22m),current_u[cm/s](26m),current_v[cm/s](26m),current_u[cm/s](30m),current_v[cm/s](30m),current_u[cm/s](34m),current_v[cm/s](34m),current_u[cm/s](38m),current_v[cm/s](38m),current_u[cm/s](42m),current_v[cm/s](42m),current_u[cm/s](46m),current_v[cm/s](46m),current_u[cm/s](50m),current_v[cm/s](50m),current_u[cm/s](54m),current_v[cm/s](54m),current_u[cm/s](58m),current_v[cm/s](58m),current_u[cm/s](62m),current_v[cm/s](62m),current_u[cm/s](66m),current_v[cm/s](66m),current_u[cm/s](70m),current_v[cm/s](70m),current_u[cm/s](74m),current_v[cm/s](74m),current_u[cm/s](78m),current_v[cm/s](78m),current_u[cm/s](82m),current_v[cm/s](82m),current_u[cm/s](86m),current_v[cm/s](86m),current_u[cm/s](90m),current_v[cm/s](90m)
2004-01-28 09:00,-8.66,-7.57,-10.56,-7.52,-14.11,-8.92,-8.54,-7.63,-7.38,-8.01,-6.97,-7.99,-6.92,-8.50,-6.35,-8.64,-5.46,-8.47,-5.37,-8.44,-4.21,-9.13,-4.36,-10.01,-3.10,-10.36,-3.55,-10.60,-3.54,-10.29,-3.80,-11.52,-4.02,-11.79,-3.75,-10.98,-4.24,-6.32,3.55,-3.73,-2.26,-5.61
2004-01-28 10:00,-8.79,-13.99,-8.78,-13.67,-10.42,-13.12,-8.29,-11.53,-6.42,-11.48,-5.19,-11.42,-4.70,-10.96,-3.51,-11.43,-3.69,-11.17,-3.85,-11.01,-4.17,-11.32,-3.60,-11.14,-3.11,-11.72,-2.75,-11.51,-2.49,-11.01,-1.73,-11.09,-1.50,-12.17,-0.78,-12.16,0.04,-9.71,-0.23,-5.40,-0.89,-2.89
2004-01-28 11:00,-3.83,-16.54,-3.03,-16.41,-4.26,-16.15,-4.01,-14.93,-4.07,-15.05,-4.26,-13.75,-4.31,-13.24,-4.11,-12.87,-4.11,-12.87,-4.40,-12.96,-4.23,-13.53,-3.83,-14.14,-3.26,-13.96,-3.31,-13.77,-2.37,-14.11,-2.41,-14.33,-2.06,-15.48,-1.49,-15.62,1.49,-10.00,4.63,-4.54,3.67,-1.39
2004-01-28 12:00,-1.75,-17.16,-2.03,-16.94,-4.66,-16.90,-0.69,-16.53,-1.53,-15.84,-0.55,-15.64,-0.79,-15.20,-0.80,-15.51,-0.16,-15.21,0.26,-14.87,-0.28,-15.15,-0.30,-16.09,-1.55,-16.47,-1.45,-16.44,-1.60,-17.33,-0.83,-18.14,-0.76,-20.42,-0.83,-20.86,-0.13,-15.31,4.89,-6.76,1.12,-7.08
2004-01-28 13:00,1.70,-5.55,1.58,-6.52,-1.60,-8.44,1.99,-6.50,1.86,-6.75,2.29,-7.14,2.30,-7.87,2.40,-7.84,2.83,-8.55,2.05,-9.10,1.54,-9.15,1.23,-9.14,0.50,-8.11,-0.45,-7.77,-1.31,-8.35,-1.23,-8.95,-1.82,-9.76,-0.87,-8.42,0.95,-6.19,3.50,-1.86,2.59,-0.25
2004-01-28 14:00,3.40,-9.42,2.82,-10.22,1.20,-11.77,4.31,-9.98,4.80,-9.20,4.13,-9.40,3.70,-9.01,2.96,-8.30,2.79,-7.41,2.42,-7.21,1.95,-7.04,0.31,-6.49,-0.51,-6.54,-0.45,-7.77,-0.21,-8.54,0.15,-9.37,0.52,-9.57,1.25,-9.55,2.38,-8.47,1.85,-5.71,0.42,-4.79
2004-01-28 15:00,2.06,-3.66,0.80,-4.67,-1.06,-9.53,1.24,-4.74,0.66,-5.24,0.69,-5.33,0.14,-4.56,-0.65,-4.38,-1.51,-4.96,-1.12,-4.21,-0.63,-3.75,-0.64,-2.70,-0.97,-2.29,-1.02,-1.46,-2.62,-1.01,-3.68,-1.65,-3.58,-1.62,-3.58,-1.62,-3.26,0.05,-1.47,-2.02,-2.55,-2.25
2004-01-28 16:00,7.94,0.02,7.14,-0.43,4.42,-1.47,6.73,-0.14,7.06,0.17,7.02,-0.05,7.90,-0.20,6.53,0.53,6.89,1.06,6.31,1.93,6.21,2.95,6.12,3.23,5.68,3.31,4.28,3.09,3.66,2.38,2.97,2.27,2.33,1.97,3.05,1.66,2.47,1.49,5.00,-1.29,4.37,-2.32
2004-01-28 17:00,3.14,-1.03,2.48,-0.92,0.26,-2.22,2.52,-0.38,2.01,-0.75,1.42,-1.24,1.31,-0.85,1.73,-0.52,2.73,-0.73,3.95,-0.26,4.38,0.71,3.37,0.61,2.51,0.35,0.64,0.30,0.20,0.37,-0.70,0.93,-0.84,0.69,-0.79,1.22,0.77,0.55,2.24,-0.15,2.37,-1.58
2004-01-28 18:00,-2.75,1.46,-3.40,1.89,-3.99,-0.28,-2.68,1.58,-2.06,1.25,-2.24,0.15,-2.76,1.14,-1.59,1.08,-1.10,1.55,-1.42,1.24,-1.84,0.90,-2.04,1.89,-2.79,2.28,-4.50,2.07,-5.15,0.41,-5.62,0.58,-5.49,-0.53,-5.46,-0.94,-3.33,-1.44,-0.55,-0.59,-1.88,-1.72
2004-01-28 19:00,-2.74,3.14,-2.09,2.39,-2.37,1.58,-1.35,3.04,-1.75,3.33,-1.09,3.22,-1.26,4.11,-1.60,4.22,-2.80,4.37,-3.67,5.15,-5.04,5.88,-5.58,5.93,-6.11,4.93,-5.14,4.49,-4.57,3.31,-4.21,1.12,-3.18,-0.87,-1.81,-2.96,-0.86,-2.98,-0.32,-0.31,1.00,2.19
2004-01-28 20:00,-5.31,-3.51,-5.75,-3.43,-5.11,-3.13,-5.05,-1.96,-5.42,-0.40,-6.63,0.48,-7.75,1.08,-8.41,0.14,-8.51,-0.20,-9.32,-0.66,-8.74,-0.48,-9.04,0.16,-8.39,1.09,-7.59,0.19,-6.62,-1.61,-6.53,-3.25,-5.67,-5.40,-4.92,-7.15,-4.06,-6.89,-0.19,-2.46,0.90,-0.56
2004-01-28 21:00,-10.41,-1.51,-11.62,-0.63,-11.11,-2.98,-13.29,0.01,-14.20,1.30,-13.56,1.60,-14.32,1.68,-14.27,2.54,-15.08,2.81,-16.02,3.15,-16.16,2.58,-14.94,0.97,-13.40,-0.65,-12.31,-2.83,-11.31,-4.40,-10.87,-5.84,-11.24,-6.68,-9.80,-7.60,-6.91,-6.82,-4.42,0.43,-2.84,2.79
2004-01-28 22:00,-7.34,-8.83,-7.34,-9.15,-7.60,-9.33,-9.44,-7.07,-9.71,-6.53,-9.99,-5.98,-10.22,-5.22,-10.40,-4.65,-11.41,-3.39,-12.79,-1.61,-14.73,-2.10,-15.46,-2.12,-15.28,-3.73,-13.88,-4.88,-12.18,-7.70,-10.13,-10.63,-10.80,-13.24,-10.34,-15.09,-7.20,-13.71,0.18,-4.34,-0.61,-1.76
2004-01-28 23:00,-8.68,-8.20,-8.58,-8.17,-8.28,-7.45,-8.52,-6.69,-8.73,-7.69,-8.77,-6.87,-8.41,-6.02,-9.87,-3.96,-10.33,-3.16,-12.12,-2.77,-13.19,-2.68,-14.13,-2.34,-13.39,-3.05,-11.22,-6.05,-9.36,-8.72,-8.71,-10.82,-9.08,-13.03,-9.22,-14.64,-8.12,-12.42,-3.27,-0.58,-3.18,-0.55
2004-01-29 00:00,-4.44,-8.05,-4.67,-8.33,-5.89,-8.08,-6.25,-8.29,-7.19,-7.95,-7.20,-7.22,-8.02,-6.95,-8.90,-5.76,-9.49,-5.21,-10.47,-3.73,-10.50,-2.59,-10.25,-1.36,-8.87,-3.13,-8.18,-6.06,-7.54,-8.16,-7.70,-9.36,-7.39,-11.05,-6.91,-12.26,-4.42,-8.78,-0.88,0.15,-2.06,0.94
2004-01-29 01:00,0.01,-6.17,0.50,-6.75,0.52,-7.16,0.55,-8.30,0.06,-7.72,-0.22,-6.13,-1.18,-5.70,-1.89,-6.12,-1.91,-5.71,-1.37,-4.39,-1.37,-4.08,-1.56,-2.78,-0.46,-1.92,0.78,-1.85,0.72,-3.02,-0.02,-4.71,-1.60,-5.72,-1.30,-6.67,-0.94,-4.78,1.32,-0.54,0.57,-0.14
2004-01-29 02:00,0.19,-4.02,-0.22,-3.73,-0.14,-3.29,-0.67,-2.93,-1.88,-3.09,-3.31,-3.52,-4.40,-2.71,-4.87,-2.54,-4.83,-2.32,-4.80,-1.05,-4.76,-0.51,-4.74,0.12,-4.92,0.69,-5.26,0.79,-5.15,0.10,-5.11,-0.73,-4.23,-2.24,-4.13,-3.25,-0.97,-1.97,-2.05,-1.15,-3.08,-0.52
2004-01-29 03:00,8.49,15.99,8.49,15.99,8.49,15.99,8.49,15.99,8.49,15.99,8.49,15.99,8.49,15.99,8.49,15.99,8.49,15.99,8.49,15.99,8.49,15.99,8.49,15.99,8.49,15.99,8.49,15.99,8.49,15.99,8.49,15.99,8.49,15.99,8.49,15.99,8.49,15.99,8.49,15.99,8.49,15.99
2004-01-29 04:00,-4.62,5.18,-4.68,6.41,-4.52,6.56,-5.81,7.01,-6.38,6.83,-8.01,6.02,-7.51,5.75,-8.56,5.43,-8.59,4.48,-7.97,3.84,-5.74,3.37,-1.22,2.97,0.77,1.91,1.41,0.53,0.46,0.56,1.33,1.14,1.37,0.31,4.42,0.93,-2.76,4.59,-3.86,-0.03,-0.23,1.08
2004-01-29 05:00,-2.41,6.16,-0.87,6.95,0.97,6.05,-0.74,10.96,-1.00,12.14,-2.21,13.02,-2.48,13.57,-3.35,12.99,-3.99,12.69,-4.57,12.20,-3.59,12.08,-3.63,11.86,-3.13,11.59,-2.97,10.39,-2.34,10.05,-1.93,9.03,-0.60,7.76,-0.91,7.77,-7.25,4.89,-3.09,4.28,-0.65,3.15
2004-01-29 06:00,-4.88,4.68,-4.44,2.20,1.35,-3.04,-7.02,2.45,-7.10,2.01,-6.95,2.89,-6.69,3.08,-6.81,3.46,-7.43,4.11,-7.62,5.41,-7.83,5.76,-7.62,6.45,-7.36,5.59,-6.09,4.52,-5.13,3.76,-4.55,2.58,-4.01,0.13,-4.82,0.72,-7.92,0.61,-2.23,-3.30,1.50,-6.96
2004-01-29 07:00,-11.21,7.24,-9.54,6.91,-4.84,3.85,-10.48,7.25,-10.17,6.93,-10.47,6.21,-9.85,5.87,-9.47,5.99,-9.75,6.22,-9.39,6.43,-8.86,6.39,-8.25,6.47,-7.24,6.57,-7.28,6.03,-7.39,5.69,-6.15,3.35,-4.78,-0.10,-3.92,-3.60,-4.30,0.04,-3.32,1.28,-0.40,-3.47
2004-01-29 08:00,-6.67,6.74,-6.22,5.63,-5.65,4.13,-6.77,5.04,-6.93,5.20,-6.53,5.63,-6.26,5.41,-5.89,4.89,-5.66,5.17,-4.62,4.86,-4.09,4.81,-3.85,4.37,-4.07,4.40,-3.29,3.91,-2.90,2.98,-2.13,0.81,-1.73,-3.25,-1.57,-5.81,-2.32,0.75,6.94,5.68,5.71,-1.91
2004-01-29 09:00,-16.36,3.57,-17.05,3.78,-14.58,2.86,-18.37,4.31,-18.43,4.51,-18.81,4.39,-18.35,4.95,-18.04,4.62,-17.75,5.03,-17.47,4.80,-16.22,5.49,-16.34,5.56,-15.99,4.41,-15.20,3.19,-14.77,1.44,-14.43,-0.34,-11.74,-2.65,-10.75,-3.81,-11.93,-5.11,-0.49,-4.54,-1.49,-2.65
2004-01-29 10:00,-16.64,-2.69,-16.19,-2.13,-12.98,-1.67,-17.13,-0.75,-17.37,0.02,-17.37,0.02,-17.79,0.73,-17.65,1.29,-17.88,1.01,-17.95,0.89,-17.88,1.01,-17.99,0.35,-17.90,0.06,-16.95,-1.00,-15.69,-3.76,-11.63,-7.11,-8.30,-9.44,-4.78,-10.35,-6.57,-5.88,-2.52,-8.51,-1.13,-0.76
2004-01-29 11:00,-15.68,0.32,-16.31,0.66,-12.58,1.80,-19.01,-0.07,-18.86,-0.23,-18.28,-0.05,-18.54,-0.24,-18.35,-0.18,-18.38,-0.08,-18.19,-0.02,-17.34,-0.08,-17.66,-0.39,-18.27,-0.78,-17.69,-1.65,-17.34,-2.80,-16.31,-4.78,-14.66,-7.10,-11.03,-8.39,-8.06,-8.85,-6.53,2.19,-6.81,0.74
2004-01-29 12:00,-10.55,-0.72,-8.34,0.27,-3.49,-2.95,-9.08,2.34,-10.25,2.40,-10.79,2.45,-10.38,2.47,-10.94,1.57,-10.80,1.82,-11.74,1.11,-13.23,0.87,-13.92,1.07,-14.56,1.09,-15.05,1.67,-16.04,1.16,-15.04,-0.42,-14.64,-1.03,-16.18,-1.81,-4.56,-0.14,-6.83,-5.02,1.17,-0.06
2004-01-29 13:00,-9.28,-4.20,-8.70,-4.02,-2.64,-7.08,-7.46,-2.28,-6.98,-2.14,-8.05,-3.09,-8.76,-4.88,-9.03,-5.69,-9.13,-5.72,-9.46,-5.30,-9.64,-4.73,-10.53,-4.90,-11.15,-4.56,-11.24,-4.28,-11.25,-4.59,-10.67,-4.10,-11.30,-4.09,-5.48,-3.98,4.21,-11.37,-16.94,-2.05,3.76,-7.84
2004-01-29 14:00,-6.18,-1.68,-4.63,-1.63,3.63,-4.01,-9.43,3.81,-10.19,3.57,-9.62,2.39,-9.61,1.35,-8.74,0.88,-8.25,0.30,-7.86,0.73,-7.97,1.43,-8.43,1.92,-8.28,1.44,-8.83,1.17,-9.40,0.99,-9.00,0.70,-9.29,-1.07,-7.77,-1.96,-0.62,3.05,-5.65,4.44,-1.47,-2.02
2004-01-29 15:00,-3.14,-1.69,-2.57,-2.88,4.67,-11.85,-3.35,-2.38,-3.90,-1.61,-4.89,-0.76,-5.29,-1.51,-4.30,-1.32,-4.24,-0.15,-3.91,0.48,-3.15,0.39,-3.26,1.09,-3.20,0.90,-3.89,1.11,-3.84,0.92,-2.63,1.08,-3.12,1.66,-0.62,-0.71,-0.02,-3.35,-3.33,-1.75,6.87,-2.29
2004-01-29 16:00,0.03,2.62,1.89,2.36,7.31,-1.00,-2.39,1.99,-3.96,3.70,-4.71,3.79,-4.03,4.62,-3.74,4.71,-3.79,5.53,-3.73,5.34,-3.48,4.89,-3.85,5.41,-3.56,5.50,-3.58,6.23,-3.29,6.31,-3.59,6.95,-2.82,6.14,-3.41,5.34,-2.79,-2.84,-4.91,6.13,-0.94,-7.19
2004-01-29 17:00,1.76,-0.61,4.78,-2.30,10.64,-6.05,4.66,0.49,5.09,3.54,6.18,4.40,6.04,3.84,5.35,4.04,5.08,4.59,4.34,5.30,3.44,6.18,3.24,6.85,2.86,6.73,2.87,7.36,3.44,7.54,4.06,6.89,3.39,6.69,4.03,8.35,1.85,3.18,-3.80,1.14,10.38,-6.24
2004-01-29 18:00,6.43,-3.58,7.54,-4.80,7.30,-5.40,6.53,-4.59,5.25,-2.79,4.44,-2.20,3.28,-1.82,2.72,-1.36,2.92,-0.99,2.76,-0.83,2.70,-0.95,1.40,-0.83,1.68,-1.05,1.80,-0.08,1.93,-0.14,1.93,1.22,1.04,2.41,-1.49,-0.25,9.94,-4.80,-1.99,-1.03,9.38,-8.11
2004-01-29 19:00,7.61,-5.72,5.87,-5.84,8.43,-9.76,5.84,-4.38,4.89,-1.64,4.45,0.84,5.56,0.97,5.21,2.12,4.97,2.88,5.18,2.21,4.95,2.98,4.64,3.62,3.75,3.45,3.20,3.91,3.78,3.35,3.24,3.08,1.63,1.86,3.66,2.38,0.66,-3.88,-0.96,2.11,2.46,-10.44
2004-01-29 20:00,1.61,12.52,-1.65,9.85,-2.05,5.33,2.48,12.05,1.50,10.81,0.13,11.54,-1.53,12.50,-1.82,13.46,-2.92,15.00,-4.18,15.03,-5.81,14.54,-6.19,14.42,-6.72,14.78,-6.56,14.93,-6.68,15.00,-6.95,14.50,-5.50,9.09,-8.94,13.16,3.25,17.73,-7.51,9.83,0.15,9.77
2004-01-29 21:00,-8.35,-5.17,-8.66,-6.21,-11.32,-13.92,-7.40,-3.83,-7.71,-2.15,-7.07,-0.81,-6.24,0.91,-6.45,1.27,-6.82,3.14,-8.94,2.91,-10.14,4.43,-11.13,5.27,-11.21,5.88,-11.12,6.95,-9.25,7.00,-9.74,7.58,-8.94,8.35,-6.95,5.30,-9.96,1.45,-8.11,-0.50,-4.54,-4.63
2004-01-29 22:00,-2.74,1.78,-3.62,0.56,-2.70,-3.13,-2.53,1.11,-1.12,1.96,-1.61,2.54,-2.16,3.31,-2.70,4.72,-3.71,5.98,-5.14,5.85,-5.12,5.12,-5.70,3.59,-4.80,2.71,-4.26,2.98,-3.88,4.15,-3.96,5.06,-4.36,6.40,-5.88,5.21,-14.25,0.76,-30.55,-0.98,-24.59,-10.56
2004-01-29 23:00,,384.90,,-933.67,,684.57,,534.73,-162.94,-70.37,992.33,309.98,,755.77,-603.57,-205.22,-138.46,-62.87,,-400.01,,426.10,,-392.52,,433.59,,-827.04,-236.38,-92.84,,648.85,,,,155.35,,-389.38,,,,786.67
2004-01-30 00:00,-5.23,-4.43,-4.71,-4.79,-3.78,-3.04,-4.15,-1.48,-3.08,-1.57,-3.23,-1.41,-2.72,-1.36,-2.78,-2.21,-2.56,-3.61,-1.73,-4.61,-1.13,-3.48,-0.08,-1.80,6.20,1.27,1.83,-0.17,1.62,0.18,1.65,4.17,5.81,2.20,-2.90,0.58,-19.65,3.71,-1.44,0.61,0.40,-11.90
2004-01-30 01:00,0.33,-2.10,0.19,-1.30,-0.78,-0.87,1.09,-0.50,2.82,0.03,2.68,-0.22,4.24,0.15,4.52,0.96,4.73,1.97,6.77,2.49,6.21,2.95,6.47,3.13,7.30,3.49,8.50,3.65,8.39,2.99,9.12,3.00,8.79,3.74,5.93,3.17,-0.30,-3.12,-4.86,-0.86,3.72,-6.70
2004-01-30 02:00,2.57,-8.73,3.95,-7.78,6.96,-6.34,4.47,-7.10,4.88,-7.40,4.74,-7.96,5.11,-7.12,4.93,-5.50,5.82,-3.97,6.55,-3.64,7.32,-3.41,8.38,-4.13,9.00,-4.46,9.15,-4.62,9.17,-3.99,9.81,-3.69,10.15,-2.75,7.62,-1.33,5.87,-5.84,1.59,-4.85,1.76,-8.14
2004-01-30 03:00,4.25,0.46,3.88,2.02,2.89,2.87,3.88,3.38,3.91,3.29,4.27,3.82,4.64,3.62,4.34,4.26,4.07,4.49,3.78,4.40,3.84,4.52,3.85,4.84,5.04,5.41,5.32,5.50,5.93,4.53,7.10,4.47,8.60,5.04,6.43,5.31,2.59,-4.02,-1.82,-4.64,4.86,-5.62
2004-01-30 04:00,10.16,6.77,9.96,6.40,10.84,4.57,11.26,6.27,11.68,6.61,11.61,6.48,12.09,6.63,10.77,6.85,10.20,6.99,10.23,6.90,10.90,7.10,10.63,6.60,11.52,6.77,12.75,6.52,15.46,5.88,18.64,5.39,19.64,6.22,16.18,5.89,7.65,-0.06,1.42,-2.60,10.31,-6.68
2004-01-30 05:00,7.14,9.82,7.33,9.88,7.50,8.99,6.90,10.27,7.20,9.63,7.17,9.72,7.35,9.47,7.26,9.75,7.46,9.81,8.65,9.34,9.34,9.13,9.99,8.70,11.14,7.70,13.62,7.10,15.27,6.14,16.80,5.25,16.58,3.92,12.01,4.83,2.23,-0.78,0.37,-0.20,7.88,-4.91
2004-01-30 06:00,9.55,11.18,8.79,11.27,8.04,10.30,6.76,10.02,6.94,10.80,7.02,11.56,7.03,11.88,7.66,11.86,7.90,11.10,8.06,11.25,8.24,10.99,7.93,11.00,9.95,9.84,10.64,9.32,12.54,8.23,12.11,7.26,13.06,6.19,9.60,6.91,0.24,0.91,0.21,1.01,0.86,-7.27
2004-01-30 07:00,4.75,10.45,5.65,9.57,8.16,7.52,6.66,9.67,7.09,9.28,7.42,9.59,6.73,9.80,5.68,9.79,5.76,9.19,5.23,9.55,5.42,8.25,6.12,8.36,6.47,7.21,7.21,6.18,7.52,5.86,7.47,5.32,7.89,4.30,6.00,3.62,3.16,-0.08,-2.52,-2.03,1.19,-8.00
2004-01-30 08:00,6.91,12.26,8.06,11.25,6.71,9.17,5.77,10.87,5.09,11.39,4.18,11.63,3.85,11.32,3.50,11.11,1.34,10.66,0.82,9.98,-0.43,9.60,-1.13,9.17,-1.62,8.71,-1.71,8.99,-2.07,8.47,-2.61,8.19,-3.63,6.73,-4.81,5.12,-5.56,1.75,-0.73,-4.09,0.27,-8.07
2004-01-30 09:00,5.47,7.74,5.40,7.30,8.62,5.67,4.88,7.98,5.71,6.98,6.40,6.77,5.80,6.69,5.17,7.02,4.36,7.29,4.29,7.17,4.24,6.63,3.08,7.01,2.42,7.12,1.64,7.61,1.29,7.40,-0.29,7.44,-0.48,6.02,-0.84,3.09,-1.50,0.80,2.30,-3.06,4.10,-3.14
2004-01-30 10:00,0.48,2.87,0.79,2.54,4.41,0.62,0.75,2.01,0.44,2.33,1.23,2.47,1.54,2.14,0.25,2.59,-0.05,1.87,-1.72,0.83,-2.81,0.29,-3.75,0.63,-4.78,-0.10,-5.11,-2.09,-5.08,-1.87,-5.07,-2.91,-5.19,-3.89,-3.38,-5.01,-2.28,-5.19,-0.39,-3.15,2.05,-7.74
2004-01-30 11:00,-2.93,0.67,-1.90,1.09,0.89,0.17,-3.44,0.31,-3.62,-0.48,-3.09,-0.84,-3.07,-1.25,-3.68,-1.65,-3.94,-2.15,-4.51,-2.01,-4.97,-2.57,-4.98,-1.84,-3.87,-1.71,-3.31,-2.16,-3.01,-2.80,-2.34,-3.96,-2.36,-4.59,-1.35,-5.85,-2.26,-5.61,-2.55,-6.01,1.89,-6.53
2004-01-30 12:00,-0.99,0.85,0.60,0.08,4.12,-3.55,0.60,1.12,0.85,1.31,1.35,2.09,1.53,1.83,2.50,2.44,2.93,2.05,3.35,1.34,3.52,1.81,3.96,1.42,4.01,0.91,3.38,-0.12,3.62,-0.88,2.33,-2.84,1.80,-5.20,1.27,-6.20,1.42,-3.96,1.19,-4.24,4.89,-3.00
2004-01-30 13:00,7.03,-3.50,7.00,-3.40,12.43,-5.08,7.90,-2.92,8.08,-2.13,7.19,-1.98,6.67,-1.62,6.74,-1.18,6.70,-1.40,5.72,-1.60,5.59,-2.89,5.24,-3.10,4.74,-3.88,4.96,-3.92,4.90,-4.04,5.21,-4.37,4.83,-5.53,4.53,-7.29,5.26,-5.92,3.21,-5.71,5.58,-6.97
2004-01-30 14:00,4.63,5.39,3.51,2.54,6.41,-4.21,1.53,2.87,2.24,3.61,1.55,5.18,1.15,5.48,0.38,4.93,-0.40,4.38,-1.15,3.41,-1.45,2.69,-2.22,2.14,-2.78,2.60,-3.12,3.02,-3.56,3.09,-3.13,4.06,-2.82,3.74,-3.67,2.43,-2.74,0.42,-3.10,1.25,-5.07,-0.51
2004-01-30 15:00,2.11,7.44,1.92,6.03,6.77,1.45,3.25,7.16,3.03,7.20,3.27,8.11,3.10,9.00,2.01,9.50,2.05,10.04,0.38,10.37,-0.65,10.99,-1.07,8.98,0.58,6.66,2.28,6.55,3.96,5.18,5.54,5.15,7.24,5.04,7.38,4.25,5.78,2.29,4.29,2.04,2.75,2.62
2004-01-30 16:00,3.48,5.04,3.74,4.18,4.89,2.12,2.82,5.47,3.36,5.42,3.88,5.79,4.01,4.99,4.65,4.98,4.79,4.18,4.56,3.90,4.04,3.54,3.98,3.41,3.98,3.41,3.74,2.82,3.89,1.30,4.01,0.91,4.68,0.07,5.89,-1.13,2.27,-1.61,0.38,-3.65,0.16,-4.97
2004-01-30 17:00,3.45,9.21,4.29,8.53,4.67,5.93,3.42,7.95,3.68,6.77,3.95,7.59,4.31,7.80,4.36,8.65,4.09,9.20,3.34,9.60,2.97,10.11,2.62,8.86,2.54,8.10,2.25,6.65,1.54,5.91,0.83,5.48,1.10,5.98,2.07,4.50,1.01,1.15,-2.16,-1.50,-1.95,-2.17
2004-01-30 18:00,4.58,8.62,4.05,8.98,2.98,9.07,3.56,8.52,4.57,9.66,4.99,10.00,5.06,10.12,5.24,9.87,5.03,10.22,4.87,10.07,4.21,10.18,4.49,9.95,4.54,9.44,4.21,9.13,3.78,8.16,5.02,5.82,6.23,3.89,8.08,3.31,3.54,0.04,-1.56,-1.73,-1.14,-2.44
2004-01-30 19:00,8.24,12.04,8.60,12.57,10.48,9.17,8.54,12.76,8.42,12.82,9.40,13.02,9.04,13.85,8.73,13.86,8.57,14.02,8.91,13.60,8.67,14.05,8.22,13.81,7.86,14.64,7.39,13.45,6.80,12.64,6.43,10.75,7.09,7.92,7.61,7.25,4.87,4.94,3.00,1.13,3.36,0.30
2004-01-30 20:00,7.09,16.81,6.85,15.90,6.55,10.37,6.34,15.85,6.31,15.94,5.70,14.50,5.56,13.62,5.82,12.76,5.58,11.85,5.17,10.79,4.41,10.55,3.84,9.33,2.60,7.91,0.88,7.38,0.92,6.56,0.89,5.29,1.10,4.94,0.45,4.32,0.59,2.17,1.78,0.34,1.51,-0.16
2004-01-30 21:00,4.06,13.37,4.08,14.01,6.27,13.00,4.17,12.68,3.89,12.59,3.97,11.99,2.85,10.49,1.76,9.64,1.01,8.99,1.56,8.22,0.29,7.93,-0.42,7.51,-0.43,6.87,-1.20,6.32,-1.69,4.50,-1.73,2.92,-2.75,2.82,-2.73,2.09,-0.95,0.02,-3.32,0.24,1.21,-2.24
2004-01-30 22:00,4.66,14.50,4.82,14.34,6.06,13.67,4.59,14.37,4.99,15.12,4.42,14.95,3.90,14.58,4.18,12.99,3.31,12.41,2.02,11.50,1.49,10.18,-0.14,9.68,0.31,8.88,-0.57,9.03,-0.46,8.33,-1.12,5.72,-1.58,2.76,-1.22,1.93,-0.20,0.67,0.13,-1.11,3.05,1.66
2004-01-30 23:00,-1.90,7.58,-1.50,8.32,-0.70,8.78,-0.99,8.38,-1.31,7.34,-1.79,6.88,-2.61,6.83,-2.40,6.48,-3.92,6.64,-5.65,4.44,-6.03,1.92,-8.24,0.62,-8.80,-0.29,-8.95,-2.53,-9.22,-3.03,-10.88,-2.39,-11.23,-2.60,-8.57,-4.82,-4.60,-5.80,-3.33,-2.80,-1.55,-2.46
2004-01-31 00:00,0.47,4.95,0.40,4.51,0.80,4.22,0.24,4.68,-0.22,5.16,-0.55,4.54,-0.91,4.32,-1.00,4.30,-0.66,3.88,-1.17,3.82,-2.58,2.97,-3.59,0.78,-4.01,-0.91,-4.94,-1.30,-5.03,-1.33,-4.36,-2.49,-3.73,-4.91,-3.40,-7.00,-0.35,-5.02,-0.36,-1.89,1.90,-2.45
2004-01-31 01:00,3.85,-1.65,3.68,-2.12,4.03,-4.62,3.03,-1.37,2.05,-1.57,2.01,-0.75,1.73,-0.20,0.37,-0.52,-0.17,-0.47,-0.88,-0.90,-1.58,-2.68,-2.02,-3.65,-2.64,-4.36,-3.15,-4.73,-4.05,-5.21,-3.75,-7.21,-4.19,-9.54,-2.44,-10.47,-1.10,-2.22,-0.36,-2.93,1.76,-5.74
2004-01-31 02:00,4.49,6.18,4.56,6.62,3.43,6.91,2.70,7.94,2.28,7.60,1.14,7.88,0.64,7.83,0.44,8.81,0.06,8.70,-0.55,8.30,-1.86,8.11,-2.46,6.67,-2.98,6.31,-2.87,5.29,-3.16,5.20,-2.17,3.00,-3.23,2.36,-3.53,0.59,-0.04,5.95,-2.09,2.39,0.04,4.30
2004-01-31 03:00,2.13,0.23,0.71,0.43,1.08,-1.13,0.66,-0.11,-0.66,0.11,-0.32,0.01,0.32,0.31,1.26,-0.03,1.37,-0.73,1.43,-0.92,1.59,-0.77,1.01,-1.26,-0.43,-2.01,-0.56,-2.26,-0.08,-3.16,-0.13,-5.06,-0.66,-6.06,-0.25,-6.35,0.32,-1.05,2.36,-7.02,2.20,-6.86
2004-01-31 04:00,2.65,5.00,2.30,4.78,2.55,4.65,2.76,5.34,2.93,5.81,3.56,5.80,3.78,5.76,3.97,5.82,4.42,6.06,3.85,5.88,3.41,5.96,3.43,5.86,2.39,5.86,1.41,5.66,0.06,4.93,-1.40,3.55,-1.64,2.63,-0.95,3.79,-0.53,4.13,0.25,-1.49,0.43,-3.11
2004-01-31 05:00,1.13,5.89,1.46,5.15,1.04,2.41,0.02,4.71,0.61,5.52,0.95,6.46,1.79,7.14,1.65,7.93,1.26,8.86,1.92,8.75,1.65,9.29,1.47,9.55,2.04,9.72,2.03,9.09,0.87,9.47,-0.47,9.06,-0.97,7.96,-2.34,7.65,-3.30,7.36,5.12,7.53,-0.86,-4.03
2004-01-31 06:00,2.90,7.27,3.07,6.38,2.93,3.41,3.12,5.87,2.94,6.13,3.45,6.49,3.91,7.05,4.16,6.92,4.78,7.63,4.56,7.67,4.10,7.11,3.60,7.38,4.75,8.04,5.12,8.57,5.27,8.41,5.31,8.63,4.09,8.15,3.58,6.43,1.04,4.81,0.42,5.46,4.70,-3.06
2004-01-31 07:00,2.57,10.41,1.13,9.97,1.82,8.40,1.10,11.11,1.53,10.72,1.76,11.00,2.21,11.24,2.20,10.92,2.65,11.16,3.71,10.76,3.86,10.28,4.20,9.86,4.89,9.65,4.43,10.14,4.71,10.23,4.59,10.29,3.88,9.87,2.79,9.01,-0.60,7.76,-2.08,2.71,-0.78,-3.27
2004-01-31 08:00,8.59,12.25,8.62,12.15,8.42,10.42,8.79,12.63,8.89,12.65,8.39,13.24,8.89,12.65,9.04,12.49,9.20,12.65,9.03,12.18,8.65,12.06,9.02,11.86,9.02,11.86,8.78,12.31,8.94,12.46,8.87,12.02,8.11,11.79,7.51,10.66,4.31,8.12,2.95,4.04,5.82,2.51
2004-01-31 09:00,1.19,10.82,1.68,11.60,3.04,7.83,1.47,12.27,2.15,11.43,2.20,10.92,3.03,11.28,3.79,11.20,3.83,11.42,3.60,11.14,4.05,11.70,5.18,11.10,5.19,11.42,5.00,10.31,5.94,11.02,6.41,9.81,7.34,8.83,6.19,7.12,3.43,6.91,0.45,2.96,3.13,1.06
2004-01-31 10:00,-2.80,8.45,-2.37,7.75,-1.46,6.14,-2.46,8.03,-1.54,8.10,-1.09,8.35,-0.80,8.43,0.63,8.87,1.27,9.17,1.37,9.20,0.47,8.72,-0.14,8.32,0.36,8.06,0.45,6.73,1.13,5.89,0.32,5.12,0.01,4.40,-0.25,2.85,0.47,2.55,1.47,2.02,1.78,-2.38
2004-01-31 11:00,-2.79,-2.84,-3.45,-4.09,-1.20,-7.69,-5.10,-1.46,-6.21,-0.23,-6.95,0.17,-7.04,-0.58,-5.48,-0.21,-5.96,-0.36,-5.49,-0.53,-5.40,0.23,-4.51,-0.65,-4.41,-0.62,-2.94,-1.32,-2.60,-1.42,-2.49,-2.12,-2.07,-3.14,-2.23,-3.30,-1.59,-3.00,0.31,-1.68,-1.05,-4.09
2004-01-31 12:00,-5.23,-1.71,-3.40,-3.24,1.30,-10.06,-5.22,-0.03,-5.03,1.07,-5.05,1.80,-5.39,2.22,-5.41,1.27,-5.62,0.58,-5.99,-0.26,-6.71,-1.64,-6.14,-1.46,-6.53,-1.89,-6.35,-2.15,-5.99,-2.98,-4.98,-3.20,-4.73,-4.37,-4.65,-4.98,-5.28,-2.56,-4.47,-3.15,-3.24,-5.80
2004-01-31 13:00,-1.34,1.99,-0.81,0.59,0.92,-5.05,-1.53,3.30,-1.62,3.58,-0.64,3.46,-1.00,3.25,-0.13,3.83,0.04,4.30,0.51,4.13,0.46,4.64,0.12,4.74,-0.07,5.00,0.46,4.64,0.57,3.94,-0.19,2.66,-0.58,0.87,-1.45,-1.07,-0.87,0.78,-0.25,0.13,1.09,4.31
2004-01-31 14:00,2.84,-2.79,2.57,-3.61,2.28,-11.54,2.61,-1.71,2.39,-1.67,2.49,-0.28,3.47,-0.40,3.85,-0.29,4.19,0.66,3.31,0.80,2.83,0.66,1.99,1.34,1.57,1.00,1.80,1.28,2.00,1.66,2.65,2.28,2.30,1.02,2.93,0.69,2.13,0.23,1.65,0.09,2.80,0.75
2004-01-31 15:00,-1.12,-4.53,-0.85,-6.12,-0.17,-14.48,-2.98,-3.94,-2.50,-3.80,-1.20,-3.61,0.21,-3.07,0.62,-3.05,1.89,-2.77,2.29,-3.38,2.55,-3.19,1.92,-2.86,2.95,-3.49,2.49,-4.36,2.79,-5.00,2.86,-5.92,2.23,-5.91,1.54,-5.70,0.82,-2.68,0.13,-2.47,-1.49,-5.06
2004-01-31 16:00,3.03,-2.73,4.38,-4.41,7.28,-11.47,2.75,-2.50,1.66,-2.00,1.38,-0.41,1.07,-0.41,0.62,-0.33,0.54,-1.09,-0.33,-1.67,0.22,-1.40,0.18,-1.62,0.31,-1.68,0.28,-1.59,0.33,-2.10,0.71,-1.98,0.64,-2.10,0.27,-1.90,-1.11,-0.13,-1.44,-2.12,-3.56,-3.08
2004-01-31 17:00,3.86,-3.73,4.50,-4.79,8.36,-11.25,3.22,-2.67,3.07,-2.51,2.85,-2.47,2.83,-2.06,2.47,-2.59,2.58,-3.29,3.26,-3.81,3.19,-3.94,2.76,-4.91,2.48,-6.04,2.51,-6.14,2.45,-5.94,2.82,-6.14,3.17,-6.25,2.73,-5.86,0.82,-5.08,-0.45,-6.73,-0.37,-9.73
2004-01-31 18:00,6.02,5.61,6.81,4.39,9.09,-4.75,7.13,5.74,6.41,6.04,6.64,6.32,6.70,6.13,6.68,5.50,5.98,5.07,5.78,4.70,5.84,4.51,5.90,3.27,6.29,3.70,6.97,2.86,7.68,2.25,7.37,2.57,7.39,3.20,6.57,3.48,2.12,1.28,1.63,-0.55,1.72,-1.88
2004-01-31 19:00,4.55,2.54,5.81,2.20,10.89,-2.10,4.84,3.68,4.96,3.61,5.82,3.87,5.48,3.98,5.40,4.58,5.54,4.10,5.72,3.53,6.18,3.04,6.59,3.06,6.54,2.21,6.56,1.80,6.58,1.39,6.81,1.67,6.69,1.73,6.98,2.14,2.99,0.81,2.23,-3.19,3.84,-4.68
2004-01-31 20:00,-0.04,2.18,1.24,1.42,9.02,-4.87,-1.23,5.38,-1.05,6.16,0.16,7.68,1.09,8.39,1.98,8.24,2.48,8.29,3.40,8.36,3.77,7.85,4.11,7.43,4.18,7.87,4.12,8.06,4.80,7.54,4.76,7.00,4.66,6.65,4.23,6.00,0.36,2.93,0.99,-0.85,0.53,-2.77
2004-01-31 21:00,-0.02,1.77,1.38,0.63,8.35,-6.44,3.68,3.01,1.85,4.54,0.41,5.15,-0.09,6.77,0.64,7.83,1.01,7.63,1.49,7.78,1.87,7.89,2.25,7.69,2.72,7.84,2.70,7.94,3.36,7.83,3.36,6.78,3.53,5.89,3.56,3.39,1.74,1.48,1.09,-1.86,1.98,-5.46
2004-01-31 22:00,-0.71,-6.91,-0.48,-7.99,5.85,-12.96,-2.14,-3.58,-2.34,-2.60,-2.63,-1.64,-1.72,-1.57,-2.16,-0.45,-2.09,-0.01,-0.98,0.12,-0.01,0.73,0.71,0.74,0.80,1.50,0.81,2.13,1.08,1.59,1.66,1.76,0.87,1.94,0.38,1.48,-0.80,-1.50,-2.15,-6.30,0.03,-8.98
2004-01-31 23:00,-2.35,-0.51,-1.88,-0.68,0.53,-2.77,-2.85,0.07,-4.15,-0.43,-3.61,-0.16,-3.09,0.20,-3.09,0.52,-2.29,0.97,-1.20,1.52,-0.93,2.02,-1.06,1.77,-1.18,2.15,-0.53,2.77,-0.18,2.98,-0.15,2.88,-0.01,3.45,0.96,1.65,-1.79,1.75,-2.91,1.31,-2.94,-1.32
2004-02-01 00:00,0.69,-5.33,0.71,-4.70,2.09,-5.11,2.44,-3.54,3.61,-3.60,3.57,-3.82,3.46,-4.48,3.01,-4.72,3.47,-5.53,3.16,-5.20,3.01,-4.72,2.90,-4.34,3.26,-3.81,3.04,-2.42,3.33,-2.01,4.02,-1.18,3.97,-1.71,3.46,-0.72,-0.04,-0.22,1.39,-2.50,4.30,-0.04
2004-02-01 01:00,0.29,-12.57,-0.17,-12.08,2.27,-14.26,-1.41,-11.10,-2.56,-10.09,-2.98,-9.07,-2.18,-8.93,-1.06,-8.48,-0.19,-8.95,-0.03,-8.79,0.38,-8.77,0.83,-8.53,1.25,-8.19,1.98,-8.18,1.27,-8.92,1.39,-8.99,1.89,-9.25,1.64,-7.76,5.38,-7.66,10.50,-10.38,7.57,-16.19
2004-02-01 02:00,-7.79,-10.75,-6.58,-10.28,-0.65,-12.23,-6.86,-8.69,-5.70,-8.02,-3.60,-7.38,-1.91,-7.07,-1.75,-6.60,-1.55,-5.18,-1.11,-3.89,-0.97,-3.33,-0.58,-2.90,-0.74,-3.05,-1.33,-2.50,-1.32,-2.18,-0.60,-2.48,1.02,-2.30,-0.22,-2.37,-0.99,-5.32,-1.02,-6.59,7.51,-9.83
2004-02-01 03:00,-8.83,-7.72,-7.75,-7.81,-2.16,-10.70,-4.83,-7.44,-2.36,-8.36,-0.49,-10.71,-0.26,-11.79,-0.65,-12.23,-0.60,-11.37,-0.61,-10.65,-0.15,-9.77,1.27,-8.60,1.76,-8.14,2.87,-8.01,3.00,-7.76,3.58,-7.59,2.94,-7.57,1.95,-5.36,2.52,-4.14,-1.49,-6.42,6.70,-9.24